GFSWCAN_prec_precacc6_060.txt.gz
Total_Precipitation_Accumulation
0.16 0.15 0.11 0.08 0.06 0.03 0.03 0.03 0.04 0.08 0.13 0.06 0.05 0.03 0.04 0.05 0.07 0.04 0.06 0.20 0.26 0.21 0.06 0.05 0.00 0.00 0.01 0.00 0.02 0.00 0.03 0.10 0.14 0.17 0.08 0.01 0.00 0.00 0.00 0.00 0.00 0.00 0.00 0.00 0.00 0.00 0.00 0.00 0.00 0.00 0.00 0.00 0.00 0.00
0.08 0.06 0.04 0.03 0.03 0.03 0.02 0.02 0.04 0.07 0.14 0.06 0.04 0.06 0.04 0.02 0.03 0.02 0.09 0.16 0.18 0.29 0.21 0.09 0.02 0.00 0.00 0.00 0.02 0.02 0.01 0.01 0.04 0.05 0.04 0.01 0.00 0.00 0.00 0.00 0.00 0.00 0.00 0.00 0.00 0.00 0.00 0.00 0.00 0.00 0.00 0.00 0.00 0.00
0.01 0.01 0.01 0.03 0.03 0.03 0.02 0.02 0.03 0.06 0.12 0.07 0.07 0.07 0.02 0.01 0.01 0.01 0.12 0.23 0.35 0.28 0.23 0.17 0.06 0.00 0.00 0.00 0.02 0.06 0.01 0.01 0.00 0.02 0.02 0.01 0.00 0.00 0.00 0.00 0.00 0.00 0.00 0.00 0.00 0.00 0.00 0.00 0.00 0.00 0.00 0.00 0.00 0.00
0.01 0.01 0.02 0.03 0.02 0.02 0.01 0.01 0.03 0.05 0.09 0.08 0.05 0.03 0.01 0.00 0.01 0.04 0.18 0.30 0.55 0.60 0.21 0.26 0.08 0.00 0.02 0.03 0.01 0.10 0.06 0.02 0.03 0.01 0.01 0.00 0.00 0.00 0.00 0.00 0.00 0.00 0.00 0.00 0.00 0.00 0.00 0.00 0.00 0.00 0.00 0.00 0.00 0.00
0.03 0.03 0.02 0.02 0.02 0.02 0.01 0.02 0.03 0.04 0.04 0.02 0.01 0.00 0.00 0.00 0.02 0.16 0.24 0.24 0.61 0.79 0.31 0.17 0.13 0.01 0.02 0.03 0.03 0.14 0.27 0.21 0.09 0.04 0.02 0.01 0.00 0.00 0.00 0.00 0.00 0.00 0.00 0.00 0.00 0.00 0.00 0.00 0.00 0.00 0.00 0.00 0.00 0.00
0.00 0.00 0.00 0.01 0.01 0.00 0.00 0.00 0.01 0.01 0.01 0.01 0.02 0.01 0.01 0.03 0.12 0.45 0.41 0.26 0.65 0.70 0.57 0.21 0.20 0.07 0.03 0.03 0.06 0.04 0.10 0.34 0.38 0.19 0.09 0.01 0.00 0.00 0.00 0.00 0.00 0.00 0.00 0.00 0.00 0.00 0.00 0.00 0.00 0.00 0.00 0.00 0.00 0.00
0.00 0.00 0.01 0.01 0.01 0.00 0.02 0.02 0.01 0.03 0.03 0.05 0.04 0.03 0.06 0.09 0.29 0.59 0.37 0.35 0.46 0.69 0.47 0.23 0.24 0.10 0.03 0.02 0.04 0.06 0.06 0.07 0.16 0.20 0.20 0.06 0.01 0.00 0.00 0.00 0.00 0.00 0.00 0.00 0.00 0.00 0.00 0.00 0.00 0.00 0.00 0.00 0.00 0.00
0.05 0.02 0.02 0.02 0.02 0.05 0.09 0.06 0.04 0.08 0.10 0.07 0.05 0.07 0.12 0.25 0.48 0.47 0.43 0.49 0.29 0.32 0.19 0.12 0.13 0.07 0.02 0.01 0.01 0.01 0.04 0.06 0.03 0.03 0.06 0.05 0.02 0.01 0.00 0.00 0.00 0.00 0.00 0.00 0.00 0.00 0.00 0.00 0.00 0.00 0.00 0.00 0.00 0.00
0.14 0.08 0.06 0.06 0.09 0.11 0.10 0.07 0.05 0.10 0.14 0.10 0.12 0.26 0.41 0.58 0.65 0.44 0.54 0.61 0.32 0.13 0.03 0.01 0.03 0.02 0.00 0.00 0.00 0.00 0.01 0.02 0.01 0.01 0.01 0.01 0.00 0.00 0.00 0.00 0.00 0.00 0.00 0.00 0.00 0.00 0.00 0.00 0.00 0.00 0.00 0.00 0.00 0.00
0.15 0.11 0.11 0.12 0.13 0.12 0.09 0.05 0.05 0.12 0.18 0.24 0.40 0.55 0.62 0.64 0.55 0.42 0.65 0.47 0.14 0.01 0.00 0.00 0.04 0.14 0.01 0.00 0.00 0.01 0.01 0.02 0.01 0.01 0.01 0.01 0.00 0.00 0.00 0.00 0.00 0.00 0.00 0.00 0.00 0.00 0.00 0.00 0.00 0.00 0.00 0.00 0.00 0.00
0.19 0.17 0.17 0.16 0.15 0.15 0.08 0.05 0.07 0.25 0.37 0.41 0.47 0.52 0.62 0.74 0.53 0.54 0.46 0.20 0.04 0.00 0.00 0.00 0.01 0.11 0.09 0.03 0.02 0.03 0.04 0.05 0.02 0.01 0.02 0.01 0.00 0.01 0.01 0.01 0.01 0.00 0.00 0.00 0.00 0.00 0.00 0.00 0.00 0.00 0.00 0.00 0.00 0.00
0.22 0.19 0.18 0.18 0.17 0.15 0.08 0.08 0.17 0.30 0.34 0.28 0.19 0.26 0.35 0.50 0.41 0.29 0.10 0.01 0.00 0.00 0.00 0.00 0.00 0.05 0.12 0.04 0.04 0.04 0.04 0.01 0.01 0.00 0.01 0.00 0.00 0.01 0.02 0.02 0.01 0.00 0.00 0.00 0.00 0.00 0.00 0.00 0.00 0.00 0.00 0.00 0.00 0.00
0.33 0.32 0.29 0.26 0.24 0.19 0.12 0.10 0.19 0.25 0.12 0.02 0.06 0.16 0.25 0.31 0.21 0.05 0.00 0.00 0.00 0.00 0.00 0.00 0.00 0.01 0.11 0.11 0.12 0.06 0.06 0.04 0.01 0.00 0.00 0.00 0.00 0.00 0.01 0.01 0.00 0.00 0.00 0.00 0.00 0.00 0.00 0.00 0.00 0.00 0.00 0.00 0.00 0.00
0.35 0.36 0.37 0.44 0.38 0.30 0.23 0.27 0.26 0.05 0.00 0.03 0.07 0.05 0.10 0.07 0.02 0.00 0.00 0.00 0.00 0.00 0.00 0.00 0.00 0.00 0.04 0.06 0.12 0.10 0.06 0.01 0.01 0.01 0.00 0.00 0.01 0.01 0.01 0.00 0.00 0.00 0.00 0.00 0.00 0.00 0.00 0.00 0.00 0.00 0.00 0.00 0.00 0.00
0.19 0.22 0.27 0.41 0.31 0.17 0.14 0.14 0.03 0.00 0.00 0.00 0.01 0.04 0.01 0.01 0.00 0.00 0.00 0.00 0.00 0.00 0.00 0.00 0.00 0.00 0.00 0.01 0.01 0.00 0.01 0.00 0.00 0.00 0.01 0.01 0.01 0.00 0.00 0.00 0.00 0.00 0.00 0.00 0.00 0.00 0.00 0.00 0.00 0.00 0.00 0.00 0.00 0.00
0.09 0.12 0.18 0.18 0.16 0.13 0.09 0.03 0.00 0.00 0.01 0.02 0.02 0.03 0.00 0.00 0.00 0.00 0.00 0.00 0.00 0.00 0.00 0.00 0.00 0.00 0.00 0.00 0.00 0.00 0.00 0.00 0.00 0.00 0.00 0.00 0.00 0.00 0.00 0.00 0.00 0.00 0.00 0.00 0.00 0.00 0.00 0.00 0.00 0.00 0.00 0.00 0.00 0.00
0.03 0.09 0.06 0.05 0.04 0.04 0.03 0.05 0.05 0.09 0.10 0.05 0.03 0.02 0.01 0.00 0.00 0.00 0.00 0.00 0.00 0.00 0.00 0.00 0.00 0.00 0.00 0.00 0.00 0.00 0.00 0.00 0.00 0.00 0.00 0.00 0.00 0.00 0.00 0.00 0.00 0.00 0.00 0.00 0.00 0.00 0.00 0.00 0.00 0.00 0.00 0.00 0.00 0.00
0.00 0.01 0.01 0.01 0.01 0.01 0.02 0.06 0.06 0.05 0.06 0.11 0.10 0.08 0.05 0.05 0.03 0.02 0.01 0.00 0.00 0.00 0.00 0.00 0.00 0.00 0.00 0.00 0.01 0.01 0.01 0.02 0.02 0.01 0.01 0.00 0.00 0.00 0.00 0.00 0.00 0.00 0.00 0.00 0.00 0.00 0.00 0.00 0.00 0.00 0.00 0.00 0.00 0.00
0.00 0.00 0.00 0.00 0.00 0.01 0.05 0.07 0.05 0.02 0.06 0.12 0.20 0.21 0.17 0.17 0.18 0.16 0.11 0.06 0.03 0.01 0.01 0.02 0.03 0.03 0.05 0.06 0.06 0.06 0.05 0.05 0.05 0.06 0.06 0.03 0.02 0.01 0.01 0.01 0.01 0.00 0.00 0.00 0.00 0.00 0.00 0.00 0.00 0.00 0.00 0.00 0.00 0.00
0.00 0.00 0.00 0.00 0.00 0.00 0.00 0.01 0.01 0.02 0.07 0.10 0.16 0.16 0.14 0.17 0.15 0.11 0.07 0.07 0.05 0.05 0.08 0.10 0.15 0.17 0.16 0.15 0.10 0.08 0.09 0.08 0.05 0.07 0.12 0.13 0.09 0.04 0.05 0.03 0.02 0.00 0.00 0.00 0.00 0.00 0.00 0.00 0.00 0.00 0.00 0.00 0.00 0.00
0.00 0.00 0.00 0.00 0.00 0.00 0.00 0.00 0.01 0.04 0.06 0.09 0.15 0.10 0.14 0.10 0.09 0.05 0.04 0.02 0.02 0.08 0.15 0.22 0.24 0.30 0.25 0.15 0.11 0.08 0.09 0.07 0.05 0.02 0.03 0.07 0.09 0.04 0.06 0.05 0.03 0.02 0.01 0.01 0.01 0.01 0.01 0.00 0.00 0.00 0.00 0.00 0.00 0.00
0.00 0.00 0.00 0.00 0.00 0.00 0.01 0.00 0.01 0.02 0.04 0.10 0.13 0.11 0.12 0.13 0.11 0.07 0.02 0.01 0.09 0.17 0.19 0.19 0.18 0.17 0.13 0.12 0.10 0.06 0.04 0.02 0.02 0.02 0.02 0.02 0.03 0.02 0.02 0.02 0.01 0.02 0.02 0.02 0.01 0.00 0.00 0.00 0.00 0.00 0.00 0.00 0.00 0.00
0.00 0.00 0.00 0.00 0.00 0.00 0.00 0.00 0.00 0.02 0.03 0.06 0.06 0.07 0.09 0.09 0.08 0.02 0.02 0.05 0.10 0.15 0.14 0.11 0.10 0.09 0.09 0.09 0.03 0.04 0.03 0.01 0.01 0.02 0.02 0.01 0.01 0.01 0.01 0.01 0.01 0.01 0.01 0.01 0.00 0.00 0.00 0.00 0.00 0.00 0.00 0.00 0.00 0.00
0.00 0.00 0.00 0.00 0.00 0.00 0.00 0.00 0.00 0.00 0.01 0.01 0.02 0.04 0.05 0.06 0.01 0.00 0.03 0.06 0.13 0.08 0.07 0.08 0.05 0.03 0.02 0.02 0.03 0.05 0.07 0.02 0.02 0.03 0.02 0.01 0.01 0.02 0.02 0.01 0.01 0.01 0.01 0.00 0.00 0.00 0.00 0.00 0.00 0.00 0.00 0.00 0.00 0.00
0.00 0.00 0.00 0.00 0.00 0.00 0.00 0.00 0.00 0.00 0.01 0.01 0.01 0.02 0.02 0.01 0.01 0.01 0.02 0.05 0.02 0.02 0.03 0.04 0.01 0.01 0.02 0.03 0.04 0.05 0.06 0.03 0.02 0.03 0.05 0.03 0.02 0.02 0.02 0.01 0.01 0.01 0.00 0.00 0.00 0.00 0.00 0.00 0.00 0.00 0.00 0.00 0.00 0.00
0.00 0.00 0.00 0.01 0.00 0.00 0.00 0.00 0.00 0.00 0.00 0.00 0.00 0.00 0.01 0.00 0.00 0.02 0.03 0.04 0.02 0.02 0.02 0.04 0.02 0.01 0.01 0.02 0.02 0.03 0.05 0.05 0.01 0.02 0.03 0.02 0.02 0.02 0.02 0.02 0.02 0.01 0.00 0.00 0.00 0.00 0.00 0.00 0.00 0.00 0.00 0.00 0.00 0.01
0.01 0.01 0.00 0.01 0.01 0.00 0.00 0.01 0.00 0.00 0.01 0.01 0.02 0.02 0.01 0.00 0.01 0.04 0.03 0.02 0.02 0.03 0.02 0.02 0.01 0.01 0.02 0.02 0.03 0.04 0.03 0.01 0.01 0.01 0.01 0.00 0.00 0.00 0.00 0.00 0.00 0.00 0.00 0.00 0.00 0.00 0.00 0.00 0.00 0.00 0.00 0.00 0.00 0.00
0.01 0.01 0.02 0.00 0.00 0.00 0.00 0.00 0.00 0.01 0.01 0.01 0.02 0.00 0.01 0.01 0.03 0.04 0.05 0.04 0.02 0.01 0.01 0.00 0.00 0.01 0.01 0.02 0.03 0.02 0.03 0.02 0.00 0.00 0.00 0.00 0.00 0.00 0.00 0.00 0.00 0.00 0.00 0.00 0.00 0.00 0.00 0.00 0.00 0.00 0.00 0.00 0.00 0.00
0.02 0.01 0.00 0.00 0.00 0.00 0.01 0.01 0.02 0.02 0.01 0.01 0.01 0.01 0.01 0.04 0.07 0.05 0.04 0.03 0.03 0.01 0.01 0.02 0.03 0.01 0.00 0.00 0.00 0.00 0.00 0.00 0.00 0.00 0.00 0.01 0.01 0.00 0.00 0.00 0.00 0.00 0.00 0.00 0.00 0.00 0.00 0.00 0.01 0.00 0.00 0.00 0.00 0.01
0.02 0.01 0.01 0.00 0.01 0.02 0.04 0.01 0.02 0.02 0.01 0.00 0.00 0.01 0.01 0.03 0.05 0.03 0.02 0.01 0.01 0.01 0.01 0.01 0.02 0.01 0.01 0.00 0.00 0.00 0.00 0.00 0.00 0.00 0.00 0.00 0.00 0.00 0.00 0.01 0.00 0.00 0.00 0.00 0.00 0.00 0.00 0.00 0.00 0.00 0.00 0.00 0.00 0.01
0.00 0.00 0.01 0.00 0.03 0.04 0.02 0.01 0.00 0.00 0.00 0.00 0.00 0.00 0.01 0.02 0.02 0.01 0.02 0.03 0.02 0.02 0.01 0.00 0.00 0.00 0.00 0.00 0.00 0.00 0.00 0.00 0.00 0.00 0.00 0.00 0.00 0.00 0.00 0.00 0.00 0.00 0.00 0.00 0.00 0.00 0.00 0.00 0.00 0.00 0.00 0.00 0.00 0.00
0.00 0.00 0.01 0.01 0.03 0.05 0.05 0.08 0.04 0.01 0.01 0.00 0.01 0.01 0.02 0.01 0.01 0.01 0.01 0.01 0.00 0.00 0.01 0.00 0.00 0.00 0.00 0.00 0.00 0.00 0.00 0.00 0.00 0.00 0.00 0.00 0.00 0.00 0.00 0.00 0.00 0.00 0.00 0.00 0.00 0.00 0.00 0.00 0.00 0.00 0.01 0.01 0.00 0.00
0.00 0.00 0.00 0.01 0.02 0.02 0.02 0.02 0.00 0.01 0.00 0.00 0.01 0.01 0.01 0.00 0.01 0.02 0.02 0.00 0.00 0.00 0.00 0.00 0.01 0.01 0.00 0.00 0.00 0.00 0.00 0.00 0.00 0.00 0.00 0.00 0.00 0.00 0.00 0.00 0.00 0.00 0.00 0.00 0.00 0.00 0.00 0.00 0.00 0.00 0.00 0.00 0.00 0.00

GFSWCAN_prec_precacc6_063.txt.gz
Total_Precipitation_Accumulation
0.25 0.22 0.22 0.23 0.22 0.20 0.15 0.08 0.03 0.04 0.08 0.04 0.04 0.03 0.04 0.05 0.13 0.12 0.06 0.20 0.24 0.12 0.08 0.07 0.00 0.00 0.00 0.00 0.00 0.00 0.02 0.01 0.06 0.13 0.07 0.01 0.00 0.00 0.00 0.00 0.00 0.00 0.00 0.00 0.00 0.00 0.00 0.00 0.00 0.00 0.00 0.00 0.00 0.00
0.16 0.16 0.19 0.19 0.20 0.16 0.09 0.05 0.03 0.06 0.13 0.06 0.05 0.06 0.06 0.05 0.08 0.08 0.07 0.15 0.21 0.21 0.07 0.08 0.01 0.00 0.00 0.00 0.00 0.01 0.01 0.00 0.03 0.06 0.04 0.01 0.00 0.00 0.00 0.00 0.00 0.00 0.00 0.00 0.00 0.00 0.00 0.00 0.00 0.00 0.00 0.00 0.00 0.00
0.12 0.12 0.13 0.14 0.13 0.09 0.06 0.04 0.03 0.06 0.12 0.07 0.08 0.09 0.08 0.04 0.06 0.08 0.06 0.16 0.17 0.20 0.04 0.05 0.08 0.00 0.00 0.00 0.00 0.03 0.02 0.02 0.02 0.05 0.06 0.03 0.01 0.00 0.00 0.00 0.00 0.00 0.00 0.00 0.00 0.00 0.00 0.00 0.00 0.00 0.00 0.00 0.00 0.00
0.05 0.06 0.07 0.08 0.07 0.04 0.02 0.02 0.03 0.06 0.13 0.10 0.07 0.08 0.10 0.05 0.07 0.09 0.08 0.22 0.15 0.25 0.13 0.07 0.14 0.04 0.03 0.01 0.00 0.00 0.01 0.02 0.06 0.06 0.08 0.01 0.01 0.00 0.00 0.00 0.00 0.00 0.00 0.00 0.00 0.00 0.00 0.00 0.00 0.00 0.00 0.00 0.00 0.00
0.04 0.04 0.04 0.03 0.02 0.02 0.02 0.03 0.05 0.12 0.15 0.07 0.05 0.09 0.13 0.06 0.10 0.08 0.11 0.17 0.18 0.52 0.28 0.12 0.15 0.05 0.09 0.07 0.02 0.00 0.01 0.15 0.14 0.10 0.05 0.01 0.00 0.00 0.00 0.00 0.00 0.00 0.00 0.00 0.00 0.00 0.00 0.00 0.00 0.00 0.00 0.00 0.00 0.00
0.03 0.04 0.04 0.03 0.03 0.03 0.04 0.06 0.09 0.16 0.10 0.04 0.04 0.11 0.12 0.07 0.06 0.14 0.28 0.17 0.18 0.39 0.57 0.23 0.21 0.09 0.13 0.15 0.09 0.06 0.09 0.35 0.40 0.22 0.10 0.02 0.01 0.00 0.00 0.00 0.00 0.00 0.00 0.00 0.00 0.00 0.00 0.00 0.00 0.00 0.00 0.00 0.00 0.00
0.03 0.04 0.04 0.04 0.05 0.07 0.09 0.10 0.12 0.12 0.04 0.03 0.04 0.10 0.08 0.06 0.06 0.24 0.23 0.29 0.23 0.27 0.41 0.26 0.25 0.11 0.07 0.11 0.08 0.07 0.08 0.13 0.22 0.26 0.25 0.14 0.05 0.02 0.00 0.00 0.00 0.00 0.00 0.00 0.00 0.00 0.00 0.00 0.00 0.00 0.00 0.00 0.00 0.00
0.00 0.00 0.01 0.01 0.02 0.03 0.04 0.04 0.05 0.03 0.01 0.02 0.03 0.04 0.05 0.11 0.14 0.17 0.34 0.61 0.28 0.23 0.27 0.26 0.20 0.16 0.04 0.03 0.05 0.02 0.05 0.07 0.10 0.13 0.14 0.13 0.11 0.12 0.05 0.00 0.00 0.00 0.00 0.00 0.00 0.00 0.00 0.00 0.00 0.00 0.00 0.00 0.00 0.00
0.00 0.00 0.00 0.00 0.00 0.00 0.00 0.00 0.00 0.01 0.02 0.01 0.03 0.14 0.22 0.23 0.26 0.23 0.74 1.00 0.50 0.29 0.21 0.15 0.16 0.21 0.06 0.00 0.01 0.01 0.02 0.06 0.06 0.03 0.04 0.07 0.07 0.09 0.08 0.01 0.00 0.00 0.00 0.00 0.00 0.00 0.00 0.00 0.00 0.00 0.00 0.00 0.00 0.00
0.01 0.02 0.03 0.04 0.04 0.04 0.02 0.00 0.01 0.05 0.08 0.11 0.25 0.38 0.26 0.29 0.40 0.35 0.85 0.84 0.51 0.24 0.11 0.07 0.05 0.21 0.07 0.01 0.01 0.01 0.00 0.02 0.00 0.00 0.00 0.00 0.01 0.00 0.00 0.00 0.00 0.00 0.00 0.00 0.01 0.01 0.00 0.00 0.00 0.00 0.00 0.00 0.00 0.00
0.08 0.05 0.05 0.04 0.06 0.09 0.05 0.03 0.05 0.18 0.24 0.25 0.34 0.39 0.42 0.51 0.52 0.62 0.76 0.58 0.25 0.07 0.04 0.02 0.01 0.08 0.09 0.02 0.00 0.01 0.00 0.00 0.00 0.00 0.00 0.00 0.00 0.00 0.00 0.01 0.01 0.01 0.01 0.01 0.00 0.00 0.00 0.00 0.00 0.00 0.00 0.00 0.00 0.00
0.13 0.11 0.06 0.04 0.05 0.07 0.05 0.05 0.10 0.20 0.24 0.35 0.31 0.32 0.37 0.45 0.51 0.42 0.41 0.33 0.09 0.01 0.00 0.00 0.00 0.00 0.02 0.01 0.01 0.01 0.01 0.00 0.00 0.00 0.00 0.00 0.00 0.01 0.02 0.02 0.01 0.00 0.00 0.00 0.00 0.00 0.01 0.01 0.00 0.00 0.00 0.00 0.00 0.00
0.20 0.18 0.14 0.13 0.10 0.06 0.03 0.04 0.16 0.30 0.41 0.33 0.13 0.23 0.33 0.35 0.28 0.17 0.13 0.05 0.01 0.00 0.00 0.00 0.00 0.00 0.05 0.09 0.10 0.02 0.01 0.00 0.00 0.00 0.00 0.00 0.00 0.00 0.01 0.01 0.00 0.00 0.00 0.00 0.01 0.02 0.02 0.00 0.00 0.00 0.00 0.00 0.00 0.00
0.31 0.24 0.25 0.26 0.21 0.19 0.20 0.31 0.37 0.35 0.31 0.20 0.23 0.18 0.32 0.14 0.07 0.03 0.00 0.00 0.00 0.00 0.00 0.00 0.00 0.00 0.04 0.06 0.13 0.14 0.09 0.01 0.01 0.01 0.00 0.00 0.01 0.01 0.01 0.00 0.01 0.02 0.02 0.03 0.04 0.01 0.00 0.00 0.00 0.00 0.00 0.00 0.00 0.00
0.23 0.20 0.18 0.24 0.20 0.19 0.25 0.30 0.18 0.16 0.14 0.22 0.17 0.12 0.12 0.02 0.01 0.01 0.00 0.00 0.00 0.00 0.00 0.00 0.00 0.00 0.00 0.02 0.02 0.03 0.05 0.04 0.01 0.00 0.01 0.01 0.01 0.00 0.00 0.00 0.01 0.01 0.01 0.00 0.00 0.00 0.00 0.00 0.00 0.00 0.00 0.00 0.00 0.00
0.12 0.13 0.17 0.21 0.18 0.19 0.22 0.15 0.09 0.07 0.08 0.06 0.06 0.04 0.01 0.00 0.00 0.00 0.00 0.00 0.00 0.00 0.00 0.00 0.00 0.00 0.00 0.00 0.00 0.00 0.00 0.00 0.00 0.00 0.00 0.00 0.00 0.00 0.00 0.00 0.00 0.00 0.00 0.00 0.00 0.00 0.00 0.00 0.00 0.00 0.00 0.00 0.00 0.00
0.06 0.11 0.12 0.14 0.15 0.15 0.11 0.04 0.01 0.01 0.01 0.01 0.02 0.01 0.01 0.01 0.02 0.02 0.01 0.01 0.00 0.00 0.00 0.00 0.00 0.00 0.00 0.00 0.00 0.00 0.00 0.00 0.00 0.00 0.00 0.00 0.00 0.00 0.01 0.01 0.01 0.00 0.00 0.01 0.01 0.00 0.00 0.00 0.00 0.00 0.00 0.00 0.00 0.00
0.08 0.06 0.03 0.04 0.03 0.03 0.02 0.03 0.02 0.01 0.01 0.04 0.04 0.04 0.02 0.02 0.03 0.03 0.02 0.01 0.00 0.00 0.00 0.00 0.00 0.00 0.00 0.01 0.01 0.01 0.02 0.02 0.01 0.00 0.00 0.00 0.01 0.01 0.01 0.01 0.01 0.00 0.00 0.00 0.00 0.00 0.00 0.00 0.00 0.00 0.00 0.00 0.00 0.00
0.03 0.02 0.01 0.02 0.01 0.01 0.05 0.06 0.03 0.01 0.06 0.10 0.12 0.12 0.10 0.12 0.13 0.12 0.08 0.03 0.01 0.00 0.00 0.01 0.02 0.02 0.04 0.07 0.08 0.08 0.08 0.08 0.08 0.10 0.13 0.12 0.10 0.06 0.06 0.06 0.02 0.00 0.00 0.00 0.00 0.00 0.00 0.00 0.00 0.00 0.00 0.00 0.00 0.00
0.00 0.00 0.00 0.00 0.01 0.01 0.01 0.02 0.01 0.02 0.07 0.11 0.14 0.13 0.12 0.19 0.16 0.12 0.09 0.08 0.04 0.04 0.06 0.09 0.14 0.17 0.18 0.18 0.16 0.15 0.16 0.16 0.10 0.12 0.17 0.19 0.17 0.10 0.09 0.05 0.03 0.01 0.00 0.00 0.00 0.00 0.00 0.01 0.01 0.00 0.00 0.00 0.00 0.00
0.00 0.00 0.00 0.00 0.00 0.00 0.01 0.01 0.02 0.03 0.05 0.08 0.13 0.08 0.14 0.10 0.08 0.05 0.02 0.00 0.01 0.06 0.13 0.19 0.23 0.30 0.26 0.20 0.20 0.17 0.17 0.12 0.09 0.05 0.06 0.10 0.13 0.07 0.08 0.08 0.05 0.04 0.03 0.03 0.03 0.04 0.04 0.02 0.01 0.00 0.00 0.00 0.00 0.00
0.00 0.00 0.00 0.00 0.00 0.00 0.02 0.02 0.02 0.04 0.05 0.11 0.12 0.09 0.11 0.11 0.09 0.05 0.01 0.01 0.09 0.16 0.21 0.22 0.22 0.21 0.14 0.15 0.16 0.12 0.12 0.07 0.05 0.05 0.04 0.03 0.04 0.04 0.04 0.04 0.02 0.03 0.04 0.04 0.03 0.02 0.01 0.00 0.00 0.00 0.00 0.00 0.00 0.00
0.00 0.00 0.00 0.00 0.00 0.00 0.01 0.00 0.02 0.05 0.05 0.09 0.09 0.08 0.11 0.10 0.10 0.02 0.03 0.08 0.13 0.19 0.21 0.16 0.16 0.16 0.12 0.14 0.07 0.07 0.06 0.01 0.02 0.02 0.02 0.02 0.02 0.03 0.02 0.03 0.02 0.02 0.02 0.03 0.02 0.01 0.00 0.00 0.00 0.00 0.00 0.00 0.00 0.00
0.00 0.00 0.00 0.00 0.00 0.00 0.00 0.00 0.01 0.04 0.04 0.04 0.05 0.07 0.10 0.09 0.02 0.01 0.05 0.08 0.14 0.12 0.08 0.11 0.07 0.05 0.04 0.03 0.04 0.05 0.07 0.02 0.01 0.03 0.03 0.01 0.02 0.04 0.03 0.03 0.02 0.02 0.02 0.01 0.01 0.00 0.00 0.00 0.00 0.00 0.00 0.00 0.00 0.00
0.00 0.00 0.00 0.00 0.00 0.00 0.00 0.00 0.01 0.01 0.04 0.04 0.04 0.06 0.08 0.03 0.02 0.03 0.04 0.06 0.05 0.05 0.05 0.05 0.03 0.02 0.03 0.03 0.04 0.04 0.05 0.02 0.01 0.02 0.05 0.03 0.02 0.03 0.02 0.02 0.02 0.01 0.00 0.00 0.00 0.00 0.00 0.00 0.00 0.00 0.00 0.00 0.00 0.00
0.00 0.00 0.01 0.01 0.00 0.00 0.00 0.00 0.01 0.01 0.01 0.01 0.02 0.04 0.02 0.00 0.00 0.02 0.03 0.04 0.03 0.03 0.03 0.03 0.01 0.01 0.01 0.01 0.01 0.02 0.04 0.02 0.00 0.01 0.03 0.02 0.02 0.01 0.01 0.02 0.01 0.01 0.00 0.00 0.00 0.00 0.00 0.00 0.00 0.00 0.00 0.00 0.00 0.00
0.01 0.01 0.00 0.01 0.01 0.01 0.01 0.01 0.00 0.00 0.01 0.01 0.02 0.02 0.01 0.00 0.01 0.03 0.03 0.02 0.02 0.03 0.03 0.02 0.01 0.00 0.01 0.01 0.02 0.02 0.01 0.00 0.00 0.01 0.01 0.00 0.00 0.00 0.00 0.00 0.00 0.00 0.00 0.00 0.00 0.00 0.00 0.00 0.00 0.00 0.00 0.00 0.00 0.00
0.02 0.01 0.01 0.00 0.00 0.00 0.00 0.00 0.00 0.01 0.02 0.02 0.01 0.00 0.00 0.01 0.03 0.04 0.05 0.04 0.02 0.01 0.00 0.00 0.00 0.00 0.00 0.01 0.01 0.00 0.01 0.00 0.00 0.00 0.00 0.00 0.00 0.00 0.00 0.00 0.00 0.00 0.00 0.00 0.00 0.00 0.00 0.00 0.00 0.00 0.00 0.00 0.00 0.00
0.02 0.01 0.00 0.00 0.00 0.00 0.01 0.01 0.02 0.02 0.01 0.01 0.00 0.01 0.01 0.04 0.06 0.05 0.05 0.03 0.02 0.00 0.00 0.00 0.01 0.00 0.00 0.00 0.00 0.00 0.00 0.00 0.00 0.00 0.00 0.00 0.00 0.00 0.00 0.01 0.00 0.00 0.00 0.00 0.00 0.00 0.00 0.00 0.00 0.00 0.00 0.00 0.00 0.00
0.01 0.00 0.00 0.00 0.00 0.01 0.04 0.01 0.02 0.01 0.00 0.00 0.01 0.01 0.01 0.04 0.06 0.04 0.02 0.01 0.00 0.01 0.01 0.01 0.01 0.00 0.00 0.00 0.00 0.00 0.00 0.00 0.00 0.00 0.00 0.00 0.00 0.01 0.00 0.00 0.00 0.00 0.00 0.00 0.00 0.00 0.00 0.00 0.00 0.00 0.00 0.00 0.00 0.00
0.00 0.00 0.00 0.00 0.02 0.02 0.01 0.00 0.00 0.00 0.00 0.00 0.00 0.00 0.01 0.03 0.03 0.02 0.02 0.02 0.01 0.00 0.00 0.00 0.00 0.00 0.00 0.00 0.00 0.00 0.00 0.01 0.00 0.00 0.00 0.00 0.00 0.00 0.00 0.00 0.00 0.00 0.00 0.00 0.00 0.00 0.00 0.00 0.00 0.00 0.00 0.00 0.00 0.00
0.00 0.00 0.00 0.00 0.03 0.04 0.03 0.03 0.00 0.00 0.00 0.00 0.00 0.00 0.01 0.00 0.01 0.01 0.01 0.00 0.00 0.00 0.01 0.00 0.00 0.00 0.00 0.00 0.00 0.00 0.00 0.00 0.00 0.00 0.00 0.00 0.00 0.00 0.00 0.00 0.00 0.00 0.00 0.00 0.00 0.00 0.00 0.00 0.00 0.00 0.00 0.00 0.00 0.00
0.00 0.00 0.00 0.00 0.02 0.02 0.04 0.03 0.00 0.01 0.00 0.00 0.01 0.01 0.00 0.00 0.01 0.01 0.02 0.00 0.00 0.00 0.00 0.00 0.01 0.01 0.00 0.00 0.00 0.00 0.00 0.00 0.00 0.00 0.00 0.00 0.00 0.00 0.00 0.00 0.00 0.00 0.00 0.00 0.00 0.00 0.00 0.00 0.00 0.00 0.00 0.00 0.00 0.00

GFSWCAN_prec_precacc6_069.txt.gz
Total_Precipitation_Accumulation
0.03 0.04 0.07 0.07 0.07 0.08 0.14 0.28 0.30 0.35 0.31 0.18 0.09 0.05 0.04 0.01 0.04 0.13 0.15 0.07 0.13 0.22 0.09 0.12 0.04 0.01 0.00 0.00 0.00 0.00 0.00 0.00 0.00 0.00 0.00 0.01 0.01 0.00 0.00 0.00 0.00 0.00 0.00 0.00 0.00 0.00 0.00 0.00 0.00 0.00 0.00 0.00 0.00 0.00
0.06 0.05 0.05 0.06 0.09 0.13 0.17 0.29 0.27 0.31 0.22 0.12 0.08 0.06 0.05 0.02 0.06 0.16 0.13 0.15 0.09 0.18 0.07 0.16 0.07 0.01 0.00 0.00 0.00 0.00 0.00 0.00 0.00 0.00 0.00 0.01 0.00 0.00 0.00 0.00 0.00 0.00 0.00 0.00 0.00 0.00 0.00 0.00 0.00 0.00 0.00 0.00 0.00 0.00
0.11 0.13 0.13 0.13 0.16 0.19 0.20 0.30 0.25 0.25 0.17 0.13 0.10 0.07 0.04 0.03 0.05 0.12 0.09 0.18 0.15 0.15 0.09 0.07 0.07 0.04 0.00 0.00 0.00 0.00 0.00 0.00 0.00 0.00 0.02 0.02 0.01 0.00 0.00 0.00 0.01 0.01 0.01 0.00 0.00 0.00 0.00 0.00 0.00 0.00 0.00 0.00 0.00 0.00
0.14 0.18 0.21 0.22 0.25 0.26 0.26 0.33 0.24 0.20 0.18 0.14 0.09 0.05 0.04 0.03 0.05 0.05 0.06 0.15 0.17 0.13 0.18 0.12 0.14 0.11 0.05 0.01 0.00 0.00 0.00 0.00 0.00 0.01 0.04 0.04 0.01 0.01 0.00 0.00 0.00 0.00 0.01 0.01 0.00 0.00 0.00 0.00 0.00 0.00 0.00 0.00 0.00 0.00
0.15 0.17 0.21 0.25 0.29 0.29 0.31 0.28 0.20 0.17 0.16 0.11 0.06 0.05 0.05 0.04 0.07 0.11 0.07 0.10 0.14 0.18 0.13 0.09 0.13 0.12 0.09 0.07 0.02 0.00 0.00 0.00 0.00 0.02 0.04 0.03 0.02 0.02 0.01 0.00 0.00 0.00 0.00 0.00 0.00 0.00 0.00 0.00 0.00 0.00 0.00 0.00 0.00 0.00
0.09 0.11 0.15 0.17 0.19 0.21 0.21 0.17 0.13 0.11 0.09 0.05 0.04 0.04 0.04 0.08 0.16 0.24 0.19 0.08 0.08 0.18 0.14 0.12 0.10 0.15 0.16 0.19 0.15 0.02 0.00 0.00 0.00 0.01 0.01 0.01 0.01 0.01 0.01 0.00 0.00 0.00 0.00 0.00 0.00 0.00 0.00 0.00 0.00 0.00 0.00 0.00 0.00 0.00
0.04 0.05 0.06 0.07 0.08 0.08 0.07 0.05 0.05 0.04 0.03 0.03 0.03 0.05 0.11 0.12 0.12 0.19 0.08 0.02 0.04 0.15 0.25 0.18 0.13 0.10 0.21 0.19 0.13 0.04 0.02 0.01 0.01 0.01 0.00 0.02 0.02 0.00 0.00 0.00 0.00 0.00 0.00 0.00 0.00 0.00 0.00 0.00 0.00 0.00 0.00 0.00 0.00 0.00
0.02 0.03 0.04 0.05 0.05 0.05 0.05 0.05 0.07 0.04 0.03 0.05 0.09 0.15 0.17 0.07 0.06 0.08 0.05 0.02 0.03 0.13 0.27 0.23 0.09 0.06 0.29 0.19 0.13 0.07 0.05 0.05 0.04 0.01 0.00 0.01 0.07 0.07 0.04 0.00 0.00 0.00 0.00 0.00 0.00 0.00 0.00 0.00 0.00 0.00 0.00 0.00 0.00 0.00
0.00 0.01 0.01 0.01 0.02 0.03 0.06 0.08 0.05 0.03 0.06 0.12 0.17 0.22 0.23 0.10 0.04 0.05 0.11 0.05 0.07 0.13 0.16 0.13 0.13 0.05 0.18 0.27 0.16 0.26 0.09 0.07 0.04 0.05 0.02 0.03 0.05 0.05 0.02 0.00 0.00 0.01 0.01 0.00 0.00 0.00 0.00 0.00 0.00 0.00 0.00 0.00 0.00 0.00
0.00 0.00 0.01 0.01 0.02 0.03 0.03 0.02 0.03 0.06 0.12 0.24 0.26 0.22 0.20 0.05 0.05 0.19 0.26 0.32 0.23 0.14 0.10 0.10 0.11 0.10 0.13 0.13 0.09 0.26 0.29 0.06 0.06 0.05 0.06 0.04 0.01 0.00 0.00 0.00 0.00 0.00 0.00 0.00 0.00 0.00 0.00 0.00 0.00 0.00 0.00 0.00 0.00 0.00
0.01 0.02 0.03 0.02 0.01 0.01 0.00 0.00 0.02 0.06 0.17 0.17 0.09 0.09 0.09 0.11 0.21 0.23 0.23 0.21 0.15 0.09 0.02 0.01 0.04 0.17 0.31 0.16 0.11 0.21 0.38 0.24 0.03 0.02 0.03 0.02 0.00 0.00 0.00 0.00 0.00 0.00 0.00 0.00 0.00 0.00 0.00 0.00 0.00 0.00 0.00 0.00 0.01 0.01
0.00 0.00 0.02 0.03 0.03 0.02 0.02 0.04 0.06 0.08 0.05 0.06 0.14 0.17 0.24 0.11 0.15 0.13 0.14 0.15 0.07 0.01 0.00 0.01 0.01 0.05 0.49 0.39 0.21 0.21 0.17 0.20 0.06 0.00 0.00 0.00 0.00 0.00 0.01 0.00 0.00 0.00 0.00 0.00 0.00 0.00 0.00 0.00 0.02 0.02 0.02 0.03 0.05 0.07
0.00 0.00 0.01 0.02 0.03 0.08 0.12 0.10 0.05 0.08 0.18 0.27 0.21 0.18 0.10 0.06 0.12 0.07 0.05 0.11 0.04 0.00 0.01 0.01 0.01 0.03 0.24 0.45 0.33 0.30 0.16 0.10 0.05 0.03 0.01 0.00 0.00 0.00 0.01 0.00 0.00 0.00 0.00 0.00 0.00 0.00 0.01 0.03 0.04 0.05 0.06 0.09 0.09 0.07
0.01 0.01 0.00 0.01 0.01 0.03 0.04 0.06 0.11 0.31 0.35 0.29 0.17 0.05 0.04 0.04 0.03 0.03 0.02 0.04 0.01 0.00 0.01 0.01 0.01 0.04 0.10 0.19 0.20 0.26 0.17 0.04 0.00 0.00 0.00 0.00 0.00 0.00 0.00 0.00 0.00 0.00 0.00 0.01 0.02 0.05 0.06 0.07 0.10 0.12 0.11 0.10 0.07 0.04
0.01 0.01 0.01 0.02 0.03 0.06 0.11 0.15 0.23 0.33 0.30 0.24 0.05 0.05 0.09 0.04 0.04 0.08 0.06 0.04 0.02 0.01 0.02 0.01 0.03 0.04 0.04 0.08 0.03 0.02 0.02 0.01 0.00 0.00 0.00 0.00 0.01 0.01 0.01 0.00 0.00 0.03 0.05 0.08 0.08 0.07 0.08 0.08 0.07 0.08 0.09 0.07 0.04 0.01
0.02 0.05 0.09 0.10 0.10 0.10 0.08 0.14 0.29 0.33 0.25 0.18 0.14 0.20 0.12 0.08 0.13 0.11 0.06 0.09 0.06 0.05 0.03 0.02 0.05 0.03 0.03 0.00 0.00 0.00 0.00 0.00 0.01 0.02 0.02 0.02 0.02 0.03 0.03 0.03 0.05 0.08 0.11 0.13 0.11 0.10 0.10 0.11 0.11 0.07 0.03 0.01 0.00 0.00
0.03 0.07 0.13 0.12 0.11 0.11 0.14 0.16 0.20 0.22 0.17 0.14 0.25 0.22 0.12 0.14 0.24 0.16 0.12 0.11 0.08 0.05 0.03 0.01 0.02 0.01 0.01 0.00 0.01 0.01 0.02 0.02 0.03 0.02 0.02 0.02 0.03 0.03 0.04 0.05 0.07 0.09 0.11 0.12 0.11 0.09 0.06 0.04 0.01 0.01 0.00 0.00 0.00 0.00
0.13 0.13 0.15 0.13 0.11 0.13 0.17 0.16 0.14 0.13 0.10 0.16 0.26 0.26 0.15 0.14 0.14 0.08 0.06 0.05 0.03 0.02 0.00 0.00 0.00 0.00 0.01 0.01 0.03 0.05 0.06 0.06 0.07 0.06 0.06 0.07 0.07 0.08 0.09 0.09 0.12 0.11 0.10 0.09 0.04 0.03 0.02 0.02 0.02 0.03 0.01 0.00 0.00 0.00
0.34 0.21 0.19 0.16 0.14 0.17 0.16 0.12 0.05 0.05 0.10 0.17 0.18 0.14 0.07 0.06 0.06 0.05 0.02 0.01 0.00 0.00 0.00 0.00 0.00 0.01 0.02 0.05 0.08 0.08 0.08 0.07 0.07 0.10 0.14 0.17 0.16 0.11 0.08 0.05 0.05 0.06 0.05 0.05 0.05 0.06 0.05 0.03 0.01 0.01 0.00 0.01 0.02 0.02
0.31 0.34 0.30 0.25 0.20 0.27 0.13 0.09 0.03 0.04 0.10 0.12 0.14 0.11 0.06 0.09 0.08 0.06 0.02 0.01 0.00 0.01 0.03 0.04 0.07 0.08 0.10 0.13 0.16 0.13 0.13 0.15 0.14 0.13 0.15 0.17 0.18 0.11 0.08 0.05 0.05 0.06 0.05 0.05 0.05 0.04 0.04 0.03 0.04 0.03 0.03 0.02 0.01 0.00
0.10 0.14 0.19 0.20 0.18 0.17 0.16 0.11 0.06 0.04 0.05 0.06 0.08 0.04 0.08 0.06 0.06 0.04 0.03 0.01 0.01 0.06 0.08 0.10 0.11 0.14 0.17 0.17 0.17 0.12 0.13 0.11 0.14 0.11 0.11 0.10 0.15 0.07 0.07 0.07 0.05 0.04 0.03 0.03 0.03 0.03 0.03 0.02 0.02 0.00 0.00 0.00 0.00 0.00
0.01 0.02 0.04 0.07 0.07 0.03 0.06 0.11 0.07 0.07 0.04 0.08 0.07 0.03 0.04 0.05 0.05 0.05 0.01 0.02 0.07 0.09 0.15 0.14 0.14 0.16 0.15 0.15 0.16 0.14 0.19 0.12 0.11 0.10 0.10 0.07 0.07 0.05 0.05 0.06 0.03 0.02 0.02 0.02 0.01 0.01 0.01 0.01 0.00 0.00 0.00 0.00 0.00 0.00
0.00 0.00 0.00 0.00 0.00 0.00 0.04 0.03 0.03 0.08 0.05 0.06 0.06 0.04 0.06 0.06 0.08 0.03 0.04 0.09 0.12 0.14 0.18 0.16 0.19 0.18 0.14 0.17 0.10 0.11 0.15 0.06 0.05 0.07 0.07 0.05 0.04 0.03 0.02 0.03 0.01 0.01 0.01 0.02 0.01 0.00 0.01 0.01 0.00 0.00 0.00 0.00 0.00 0.00
0.00 0.00 0.00 0.00 0.00 0.00 0.00 0.03 0.05 0.06 0.05 0.04 0.04 0.07 0.08 0.06 0.04 0.02 0.06 0.09 0.14 0.15 0.13 0.14 0.15 0.14 0.12 0.08 0.07 0.08 0.11 0.04 0.02 0.03 0.03 0.01 0.01 0.02 0.01 0.01 0.00 0.00 0.00 0.01 0.00 0.00 0.00 0.00 0.00 0.00 0.00 0.00 0.00 0.00
0.00 0.00 0.00 0.00 0.00 0.00 0.00 0.01 0.02 0.03 0.06 0.06 0.05 0.08 0.09 0.06 0.04 0.05 0.07 0.09 0.10 0.11 0.11 0.12 0.11 0.09 0.07 0.07 0.07 0.06 0.05 0.01 0.00 0.01 0.02 0.00 0.00 0.00 0.00 0.00 0.00 0.00 0.00 0.00 0.00 0.00 0.00 0.00 0.00 0.00 0.00 0.00 0.00 0.00
0.00 0.01 0.01 0.01 0.00 0.00 0.00 0.00 0.01 0.03 0.03 0.03 0.05 0.06 0.05 0.02 0.02 0.04 0.05 0.07 0.08 0.08 0.09 0.09 0.08 0.05 0.05 0.04 0.03 0.02 0.02 0.00 0.00 0.00 0.01 0.00 0.00 0.00 0.00 0.00 0.00 0.00 0.00 0.00 0.00 0.00 0.00 0.00 0.00 0.00 0.00 0.00 0.00 0.00
0.00 0.00 0.00 0.00 0.02 0.01 0.00 0.00 0.00 0.00 0.01 0.01 0.02 0.02 0.02 0.01 0.02 0.04 0.05 0.06 0.06 0.07 0.06 0.05 0.04 0.02 0.02 0.02 0.01 0.01 0.00 0.00 0.00 0.00 0.00 0.00 0.00 0.00 0.00 0.00 0.00 0.01 0.01 0.00 0.00 0.00 0.00 0.00 0.00 0.00 0.00 0.00 0.00 0.00
0.02 0.00 0.00 0.00 0.00 0.00 0.00 0.00 0.00 0.01 0.02 0.02 0.00 0.00 0.00 0.00 0.02 0.05 0.04 0.05 0.04 0.04 0.03 0.02 0.02 0.00 0.00 0.00 0.00 0.00 0.00 0.00 0.00 0.00 0.00 0.00 0.00 0.00 0.00 0.00 0.00 0.00 0.00 0.00 0.00 0.00 0.01 0.00 0.00 0.00 0.00 0.00 0.00 0.00
0.00 0.00 0.00 0.00 0.00 0.00 0.01 0.01 0.01 0.01 0.02 0.01 0.00 0.00 0.01 0.02 0.04 0.04 0.05 0.03 0.01 0.01 0.01 0.01 0.00 0.00 0.00 0.00 0.00 0.00 0.00 0.00 0.00 0.00 0.00 0.00 0.00 0.00 0.00 0.00 0.00 0.00 0.00 0.00 0.00 0.00 0.00 0.00 0.00 0.00 0.00 0.00 0.00 0.00
0.00 0.00 0.00 0.00 0.00 0.01 0.03 0.01 0.01 0.02 0.01 0.00 0.00 0.00 0.01 0.05 0.08 0.05 0.03 0.02 0.01 0.00 0.00 0.00 0.00 0.00 0.00 0.00 0.00 0.00 0.00 0.00 0.00 0.00 0.00 0.00 0.00 0.00 0.00 0.00 0.00 0.00 0.00 0.00 0.00 0.00 0.00 0.00 0.00 0.00 0.00 0.00 0.00 0.00
0.00 0.00 0.00 0.00 0.01 0.01 0.01 0.00 0.00 0.00 0.00 0.00 0.00 0.00 0.01 0.03 0.02 0.02 0.01 0.01 0.01 0.00 0.00 0.00 0.00 0.00 0.00 0.00 0.00 0.00 0.00 0.00 0.00 0.00 0.00 0.00 0.00 0.00 0.00 0.00 0.00 0.00 0.00 0.00 0.00 0.00 0.00 0.00 0.00 0.00 0.00 0.00 0.00 0.00
0.00 0.00 0.00 0.00 0.01 0.01 0.01 0.00 0.00 0.00 0.00 0.00 0.00 0.00 0.00 0.00 0.00 0.01 0.01 0.01 0.00 0.00 0.00 0.00 0.00 0.00 0.00 0.00 0.00 0.00 0.00 0.00 0.00 0.00 0.00 0.00 0.00 0.00 0.00 0.00 0.00 0.00 0.00 0.00 0.00 0.00 0.00 0.00 0.00 0.00 0.00 0.00 0.00 0.00
0.00 0.00 0.00 0.00 0.01 0.01 0.02 0.01 0.00 0.00 0.00 0.00 0.00 0.00 0.00 0.00 0.00 0.00 0.00 0.00 0.00 0.00 0.00 0.00 0.00 0.00 0.00 0.00 0.00 0.00 0.00 0.00 0.00 0.00 0.00 0.00 0.00 0.00 0.00 0.00 0.00 0.00 0.00 0.00 0.00 0.00 0.00 0.00 0.00 0.00 0.00 0.00 0.00 0.00

GFSWCAN_prec_precacc6_072.txt.gz
Total_Precipitation_Accumulation
0.04 0.03 0.04 0.05 0.09 0.16 0.13 0.15 0.20 0.30 0.27 0.24 0.18 0.18 0.16 0.09 0.06 0.02 0.00 0.00 0.06 0.11 0.07 0.12 0.06 0.09 0.01 0.02 0.02 0.00 0.01 0.00 0.00 0.00 0.00 0.00 0.00 0.00 0.00 0.00 0.00 0.00 0.00 0.00 0.00 0.00 0.00 0.00 0.00 0.00 0.00 0.00 0.00 0.00
0.04 0.03 0.03 0.04 0.07 0.12 0.16 0.21 0.24 0.29 0.22 0.18 0.17 0.15 0.16 0.09 0.05 0.02 0.01 0.01 0.05 0.14 0.06 0.19 0.12 0.04 0.09 0.01 0.01 0.01 0.00 0.00 0.00 0.00 0.00 0.00 0.00 0.00 0.00 0.00 0.00 0.00 0.00 0.00 0.00 0.00 0.00 0.00 0.00 0.00 0.00 0.00 0.00 0.00
0.06 0.08 0.06 0.05 0.15 0.14 0.14 0.26 0.24 0.23 0.18 0.18 0.18 0.16 0.14 0.09 0.06 0.03 0.01 0.03 0.11 0.11 0.05 0.07 0.11 0.05 0.04 0.03 0.00 0.00 0.00 0.00 0.00 0.00 0.00 0.00 0.00 0.00 0.00 0.00 0.00 0.01 0.01 0.01 0.00 0.00 0.00 0.00 0.00 0.00 0.00 0.00 0.00 0.00
0.04 0.04 0.05 0.04 0.05 0.05 0.10 0.22 0.19 0.19 0.22 0.19 0.18 0.17 0.13 0.11 0.11 0.03 0.03 0.08 0.15 0.07 0.13 0.08 0.14 0.14 0.05 0.02 0.00 0.00 0.00 0.00 0.00 0.00 0.00 0.00 0.00 0.00 0.00 0.00 0.00 0.00 0.01 0.01 0.00 0.00 0.00 0.00 0.00 0.00 0.00 0.00 0.00 0.00
0.16 0.10 0.09 0.11 0.14 0.16 0.21 0.25 0.25 0.24 0.24 0.20 0.18 0.18 0.17 0.16 0.11 0.03 0.05 0.09 0.13 0.15 0.15 0.08 0.14 0.16 0.10 0.07 0.02 0.00 0.00 0.01 0.01 0.00 0.00 0.00 0.00 0.01 0.00 0.00 0.00 0.00 0.00 0.00 0.00 0.00 0.00 0.00 0.00 0.00 0.00 0.00 0.00 0.00
0.17 0.18 0.20 0.22 0.23 0.26 0.30 0.29 0.24 0.24 0.22 0.20 0.18 0.19 0.18 0.16 0.08 0.07 0.16 0.08 0.06 0.15 0.23 0.17 0.12 0.19 0.19 0.14 0.11 0.02 0.00 0.01 0.02 0.01 0.01 0.00 0.00 0.00 0.00 0.00 0.00 0.00 0.00 0.01 0.00 0.01 0.00 0.00 0.00 0.00 0.00 0.00 0.00 0.00
0.11 0.12 0.12 0.13 0.15 0.16 0.16 0.15 0.16 0.17 0.15 0.14 0.15 0.14 0.14 0.07 0.03 0.08 0.08 0.01 0.02 0.16 0.19 0.25 0.20 0.15 0.36 0.17 0.13 0.06 0.01 0.00 0.02 0.03 0.01 0.01 0.00 0.00 0.00 0.00 0.00 0.00 0.00 0.00 0.00 0.00 0.00 0.00 0.00 0.00 0.00 0.00 0.00 0.00
0.04 0.05 0.06 0.06 0.06 0.05 0.05 0.06 0.06 0.06 0.07 0.07 0.07 0.05 0.03 0.01 0.04 0.06 0.05 0.01 0.03 0.13 0.12 0.20 0.35 0.25 0.64 0.26 0.13 0.09 0.05 0.03 0.01 0.01 0.00 0.01 0.00 0.00 0.00 0.00 0.00 0.00 0.00 0.00 0.00 0.00 0.00 0.00 0.00 0.00 0.00 0.00 0.00 0.00
0.02 0.03 0.02 0.03 0.02 0.02 0.02 0.02 0.02 0.02 0.02 0.02 0.03 0.05 0.10 0.09 0.07 0.06 0.09 0.06 0.08 0.13 0.13 0.14 0.40 0.34 0.42 0.42 0.15 0.18 0.10 0.07 0.02 0.01 0.00 0.01 0.00 0.00 0.00 0.00 0.00 0.01 0.01 0.00 0.00 0.00 0.00 0.00 0.00 0.00 0.00 0.00 0.00 0.00
0.01 0.01 0.01 0.01 0.01 0.01 0.00 0.01 0.01 0.02 0.06 0.17 0.17 0.17 0.19 0.08 0.07 0.14 0.18 0.27 0.16 0.10 0.06 0.15 0.35 0.50 0.41 0.53 0.25 0.22 0.27 0.07 0.01 0.01 0.01 0.00 0.00 0.00 0.00 0.00 0.00 0.00 0.00 0.00 0.00 0.00 0.00 0.00 0.00 0.00 0.00 0.00 0.00 0.00
0.02 0.03 0.03 0.02 0.01 0.01 0.01 0.01 0.02 0.07 0.18 0.20 0.13 0.09 0.07 0.16 0.12 0.16 0.17 0.16 0.11 0.07 0.03 0.02 0.10 0.31 0.42 0.47 0.25 0.26 0.42 0.31 0.04 0.01 0.01 0.00 0.00 0.00 0.00 0.00 0.00 0.00 0.00 0.00 0.00 0.00 0.00 0.00 0.00 0.00 0.00 0.01 0.02 0.03
0.03 0.03 0.04 0.04 0.03 0.02 0.02 0.03 0.06 0.11 0.12 0.09 0.09 0.10 0.23 0.11 0.12 0.13 0.18 0.04 0.03 0.02 0.01 0.00 0.01 0.10 0.15 0.27 0.23 0.25 0.22 0.38 0.20 0.02 0.00 0.00 0.00 0.00 0.01 0.00 0.00 0.00 0.00 0.00 0.00 0.00 0.00 0.00 0.00 0.00 0.00 0.01 0.04 0.09
0.01 0.02 0.02 0.04 0.08 0.14 0.16 0.13 0.14 0.11 0.06 0.06 0.07 0.09 0.05 0.02 0.10 0.10 0.08 0.01 0.00 0.00 0.01 0.01 0.00 0.00 0.01 0.11 0.29 0.29 0.19 0.17 0.16 0.08 0.03 0.01 0.00 0.01 0.01 0.00 0.00 0.00 0.00 0.00 0.00 0.00 0.00 0.00 0.00 0.00 0.03 0.10 0.14 0.16
0.00 0.01 0.04 0.08 0.10 0.08 0.06 0.09 0.10 0.10 0.06 0.13 0.15 0.05 0.02 0.01 0.05 0.02 0.00 0.00 0.00 0.00 0.01 0.00 0.00 0.02 0.07 0.17 0.20 0.32 0.30 0.16 0.08 0.04 0.04 0.04 0.02 0.02 0.01 0.00 0.00 0.00 0.00 0.00 0.00 0.00 0.00 0.00 0.04 0.10 0.14 0.15 0.13 0.12
0.00 0.01 0.01 0.01 0.01 0.01 0.03 0.04 0.06 0.11 0.14 0.20 0.05 0.03 0.02 0.02 0.05 0.04 0.01 0.01 0.01 0.01 0.01 0.01 0.03 0.04 0.06 0.13 0.11 0.10 0.14 0.12 0.07 0.04 0.02 0.02 0.02 0.02 0.02 0.01 0.01 0.01 0.01 0.02 0.04 0.05 0.08 0.09 0.09 0.13 0.16 0.15 0.08 0.03
0.01 0.02 0.03 0.03 0.03 0.03 0.02 0.04 0.13 0.15 0.17 0.10 0.09 0.12 0.06 0.05 0.10 0.09 0.06 0.09 0.06 0.05 0.03 0.03 0.07 0.04 0.09 0.07 0.06 0.02 0.00 0.01 0.03 0.04 0.04 0.03 0.04 0.05 0.06 0.06 0.08 0.11 0.14 0.16 0.15 0.11 0.11 0.12 0.12 0.10 0.06 0.02 0.02 0.02
0.02 0.03 0.04 0.03 0.04 0.03 0.02 0.05 0.09 0.10 0.10 0.12 0.19 0.16 0.09 0.13 0.23 0.18 0.15 0.14 0.13 0.11 0.07 0.04 0.05 0.05 0.06 0.03 0.02 0.03 0.03 0.05 0.06 0.06 0.05 0.06 0.07 0.08 0.09 0.09 0.10 0.09 0.10 0.09 0.07 0.07 0.06 0.05 0.01 0.01 0.00 0.00 0.00 0.00
0.05 0.04 0.02 0.03 0.03 0.04 0.08 0.11 0.13 0.13 0.14 0.19 0.26 0.27 0.17 0.21 0.27 0.22 0.17 0.16 0.16 0.11 0.03 0.02 0.02 0.01 0.02 0.02 0.04 0.06 0.07 0.09 0.09 0.08 0.08 0.09 0.09 0.09 0.08 0.07 0.09 0.08 0.07 0.06 0.04 0.04 0.03 0.03 0.03 0.04 0.02 0.00 0.00 0.01
0.23 0.09 0.08 0.06 0.04 0.10 0.14 0.14 0.07 0.05 0.11 0.24 0.29 0.21 0.17 0.20 0.23 0.21 0.13 0.07 0.05 0.03 0.04 0.04 0.01 0.01 0.03 0.04 0.07 0.08 0.07 0.08 0.08 0.09 0.10 0.12 0.11 0.08 0.06 0.05 0.06 0.06 0.05 0.06 0.05 0.04 0.04 0.04 0.03 0.02 0.01 0.02 0.03 0.03
0.48 0.37 0.30 0.24 0.22 0.30 0.22 0.16 0.08 0.05 0.11 0.17 0.20 0.17 0.13 0.15 0.13 0.12 0.07 0.03 0.01 0.00 0.01 0.02 0.04 0.06 0.07 0.09 0.14 0.10 0.10 0.11 0.10 0.08 0.10 0.13 0.13 0.07 0.07 0.04 0.05 0.05 0.03 0.04 0.03 0.03 0.03 0.02 0.03 0.03 0.03 0.02 0.01 0.01
0.26 0.30 0.32 0.32 0.25 0.17 0.23 0.24 0.16 0.07 0.05 0.06 0.07 0.04 0.05 0.03 0.04 0.04 0.03 0.01 0.01 0.04 0.06 0.07 0.09 0.10 0.12 0.13 0.12 0.08 0.09 0.08 0.11 0.08 0.07 0.08 0.13 0.05 0.05 0.05 0.03 0.02 0.02 0.02 0.01 0.02 0.01 0.01 0.01 0.00 0.00 0.00 0.00 0.00
0.04 0.07 0.10 0.13 0.11 0.04 0.05 0.09 0.07 0.09 0.04 0.06 0.06 0.02 0.03 0.03 0.03 0.04 0.01 0.01 0.05 0.07 0.10 0.10 0.10 0.11 0.11 0.12 0.13 0.12 0.16 0.11 0.11 0.10 0.10 0.06 0.06 0.04 0.03 0.04 0.01 0.01 0.01 0.01 0.00 0.00 0.01 0.00 0.00 0.00 0.00 0.00 0.00 0.00
0.00 0.00 0.00 0.00 0.01 0.00 0.03 0.03 0.02 0.06 0.03 0.05 0.04 0.03 0.04 0.05 0.07 0.02 0.03 0.07 0.09 0.12 0.14 0.12 0.14 0.14 0.12 0.16 0.10 0.12 0.17 0.07 0.07 0.08 0.08 0.05 0.04 0.03 0.01 0.01 0.00 0.00 0.00 0.01 0.00 0.00 0.00 0.00 0.00 0.00 0.00 0.00 0.00 0.00
0.00 0.00 0.00 0.00 0.00 0.00 0.00 0.02 0.03 0.03 0.03 0.03 0.03 0.05 0.06 0.05 0.03 0.02 0.05 0.08 0.12 0.13 0.12 0.12 0.14 0.14 0.13 0.09 0.07 0.08 0.13 0.06 0.03 0.04 0.04 0.01 0.01 0.01 0.00 0.00 0.00 0.00 0.00 0.00 0.00 0.00 0.00 0.00 0.00 0.00 0.00 0.00 0.00 0.00
0.00 0.00 0.00 0.00 0.00 0.00 0.00 0.00 0.01 0.01 0.03 0.04 0.03 0.04 0.05 0.04 0.02 0.03 0.05 0.07 0.09 0.10 0.11 0.13 0.13 0.12 0.09 0.09 0.09 0.08 0.07 0.03 0.01 0.01 0.01 0.00 0.00 0.00 0.00 0.00 0.00 0.00 0.00 0.00 0.00 0.00 0.00 0.00 0.00 0.00 0.00 0.00 0.00 0.00
0.00 0.01 0.00 0.00 0.00 0.00 0.00 0.00 0.01 0.01 0.01 0.01 0.02 0.04 0.03 0.01 0.01 0.02 0.03 0.06 0.07 0.08 0.09 0.10 0.10 0.08 0.07 0.07 0.06 0.05 0.03 0.00 0.00 0.00 0.00 0.00 0.00 0.00 0.00 0.00 0.00 0.00 0.00 0.00 0.00 0.00 0.00 0.00 0.00 0.00 0.00 0.00 0.00 0.00
0.00 0.00 0.00 0.00 0.01 0.01 0.00 0.01 0.00 0.00 0.00 0.01 0.01 0.02 0.01 0.01 0.01 0.03 0.05 0.05 0.06 0.07 0.07 0.07 0.06 0.05 0.04 0.04 0.02 0.01 0.00 0.00 0.00 0.00 0.00 0.00 0.00 0.00 0.00 0.00 0.00 0.01 0.00 0.00 0.00 0.00 0.00 0.00 0.00 0.00 0.00 0.00 0.00 0.00
0.01 0.00 0.00 0.00 0.00 0.00 0.00 0.00 0.00 0.01 0.01 0.01 0.00 0.00 0.00 0.00 0.02 0.04 0.04 0.05 0.05 0.05 0.05 0.05 0.03 0.01 0.00 0.00 0.00 0.00 0.00 0.00 0.00 0.00 0.00 0.00 0.00 0.00 0.00 0.00 0.00 0.00 0.00 0.00 0.00 0.00 0.00 0.00 0.00 0.00 0.00 0.00 0.00 0.00
0.00 0.00 0.00 0.00 0.00 0.00 0.00 0.01 0.01 0.01 0.01 0.01 0.00 0.00 0.01 0.02 0.04 0.04 0.04 0.04 0.04 0.03 0.02 0.01 0.00 0.00 0.00 0.00 0.00 0.00 0.00 0.00 0.00 0.00 0.00 0.00 0.00 0.00 0.00 0.00 0.00 0.00 0.00 0.00 0.00 0.00 0.00 0.00 0.00 0.00 0.00 0.00 0.00 0.00
0.00 0.00 0.00 0.00 0.00 0.01 0.02 0.01 0.01 0.02 0.01 0.00 0.00 0.00 0.01 0.04 0.06 0.05 0.03 0.02 0.01 0.01 0.00 0.00 0.00 0.00 0.00 0.00 0.00 0.00 0.00 0.00 0.00 0.00 0.00 0.00 0.00 0.00 0.00 0.00 0.00 0.00 0.00 0.00 0.00 0.00 0.00 0.00 0.00 0.00 0.00 0.00 0.00 0.00
0.00 0.00 0.00 0.00 0.01 0.01 0.01 0.01 0.00 0.00 0.00 0.00 0.00 0.00 0.01 0.02 0.02 0.02 0.02 0.02 0.01 0.00 0.00 0.00 0.00 0.00 0.00 0.00 0.00 0.00 0.00 0.00 0.00 0.00 0.00 0.00 0.00 0.00 0.00 0.00 0.00 0.00 0.00 0.00 0.00 0.00 0.00 0.00 0.00 0.00 0.00 0.00 0.00 0.00
0.00 0.00 0.00 0.00 0.01 0.01 0.01 0.00 0.00 0.00 0.00 0.00 0.00 0.00 0.00 0.00 0.00 0.01 0.01 0.01 0.00 0.00 0.00 0.00 0.00 0.00 0.00 0.00 0.00 0.00 0.00 0.00 0.00 0.00 0.00 0.00 0.00 0.00 0.00 0.00 0.00 0.00 0.00 0.00 0.00 0.00 0.00 0.00 0.00 0.00 0.00 0.00 0.00 0.00
0.00 0.00 0.00 0.00 0.01 0.01 0.01 0.00 0.00 0.00 0.00 0.00 0.00 0.00 0.00 0.00 0.00 0.01 0.01 0.00 0.00 0.00 0.00 0.00 0.00 0.00 0.00 0.00 0.00 0.00 0.00 0.00 0.00 0.00 0.00 0.00 0.00 0.00 0.00 0.00 0.00 0.00 0.00 0.00 0.00 0.00 0.00 0.00 0.00 0.00 0.00 0.00 0.00 0.00

GFSWCAN_prec_precacc6_075.txt.gz
Total_Precipitation_Accumulation
0.07 0.06 0.04 0.02 0.05 0.12 0.09 0.12 0.12 0.09 0.05 0.11 0.12 0.16 0.30 0.31 0.21 0.16 0.06 0.01 0.01 0.03 0.04 0.07 0.06 0.11 0.06 0.04 0.04 0.02 0.07 0.03 0.04 0.02 0.01 0.00 0.00 0.00 0.00 0.00 0.01 0.02 0.02 0.02 0.03 0.02 0.00 0.00 0.00 0.00 0.00 0.00 0.00 0.00
0.06 0.04 0.04 0.03 0.04 0.09 0.16 0.17 0.15 0.09 0.08 0.11 0.12 0.11 0.20 0.23 0.21 0.13 0.04 0.01 0.01 0.05 0.07 0.07 0.07 0.07 0.12 0.02 0.03 0.04 0.01 0.00 0.00 0.01 0.01 0.00 0.00 0.00 0.00 0.00 0.00 0.00 0.01 0.04 0.01 0.00 0.00 0.00 0.00 0.00 0.00 0.00 0.00 0.00
0.06 0.05 0.06 0.07 0.23 0.20 0.24 0.20 0.15 0.09 0.09 0.09 0.10 0.11 0.16 0.21 0.25 0.12 0.03 0.01 0.02 0.04 0.03 0.01 0.05 0.02 0.07 0.07 0.02 0.09 0.03 0.00 0.00 0.00 0.00 0.00 0.00 0.00 0.00 0.00 0.00 0.00 0.00 0.00 0.00 0.00 0.00 0.00 0.00 0.00 0.00 0.00 0.00 0.00
0.05 0.06 0.05 0.04 0.11 0.29 0.26 0.21 0.12 0.09 0.09 0.09 0.11 0.15 0.17 0.27 0.27 0.09 0.01 0.01 0.01 0.02 0.02 0.01 0.06 0.07 0.01 0.04 0.01 0.01 0.03 0.00 0.00 0.00 0.04 0.02 0.00 0.00 0.00 0.00 0.00 0.00 0.00 0.00 0.00 0.00 0.00 0.00 0.00 0.00 0.00 0.00 0.00 0.00
0.09 0.03 0.02 0.05 0.11 0.25 0.22 0.15 0.14 0.12 0.11 0.11 0.16 0.20 0.27 0.36 0.29 0.07 0.01 0.00 0.00 0.02 0.07 0.01 0.04 0.10 0.06 0.04 0.02 0.01 0.02 0.06 0.04 0.04 0.02 0.01 0.00 0.00 0.00 0.00 0.00 0.00 0.00 0.00 0.00 0.00 0.00 0.00 0.00 0.00 0.00 0.00 0.00 0.00
0.13 0.12 0.10 0.09 0.09 0.15 0.18 0.18 0.16 0.16 0.16 0.18 0.22 0.30 0.43 0.43 0.17 0.02 0.09 0.05 0.00 0.03 0.15 0.10 0.05 0.09 0.13 0.07 0.04 0.01 0.01 0.07 0.06 0.02 0.02 0.00 0.00 0.00 0.00 0.00 0.00 0.00 0.00 0.00 0.00 0.00 0.00 0.00 0.00 0.00 0.00 0.00 0.00 0.00
0.14 0.12 0.11 0.11 0.14 0.16 0.15 0.16 0.19 0.21 0.20 0.20 0.27 0.36 0.33 0.12 0.01 0.02 0.06 0.02 0.00 0.07 0.14 0.17 0.11 0.09 0.24 0.13 0.11 0.08 0.04 0.05 0.09 0.10 0.04 0.03 0.01 0.00 0.00 0.00 0.00 0.00 0.00 0.00 0.00 0.00 0.00 0.00 0.00 0.00 0.00 0.00 0.00 0.00
0.10 0.11 0.11 0.10 0.09 0.09 0.10 0.12 0.13 0.13 0.16 0.21 0.24 0.14 0.03 0.02 0.05 0.03 0.05 0.00 0.00 0.04 0.08 0.15 0.30 0.38 0.53 0.27 0.15 0.12 0.10 0.09 0.05 0.08 0.04 0.04 0.03 0.02 0.01 0.00 0.00 0.00 0.00 0.00 0.00 0.00 0.00 0.00 0.00 0.00 0.00 0.00 0.00 0.00
0.04 0.05 0.05 0.04 0.03 0.04 0.05 0.06 0.08 0.10 0.11 0.12 0.10 0.11 0.14 0.12 0.08 0.05 0.03 0.01 0.02 0.04 0.09 0.10 0.35 0.67 0.82 0.50 0.16 0.12 0.17 0.11 0.05 0.03 0.03 0.06 0.02 0.01 0.00 0.00 0.00 0.00 0.00 0.00 0.00 0.00 0.00 0.00 0.00 0.00 0.00 0.00 0.00 0.00
0.02 0.02 0.01 0.01 0.01 0.01 0.01 0.02 0.04 0.05 0.06 0.07 0.07 0.11 0.13 0.08 0.07 0.14 0.13 0.12 0.07 0.04 0.07 0.10 0.29 0.59 0.83 0.97 0.34 0.13 0.13 0.08 0.02 0.01 0.02 0.03 0.01 0.00 0.00 0.00 0.00 0.00 0.00 0.00 0.00 0.00 0.00 0.00 0.00 0.00 0.00 0.00 0.00 0.00
0.02 0.01 0.01 0.01 0.01 0.01 0.01 0.01 0.01 0.01 0.02 0.04 0.05 0.05 0.05 0.17 0.20 0.15 0.10 0.12 0.07 0.03 0.02 0.02 0.10 0.39 0.68 0.95 0.39 0.25 0.17 0.15 0.06 0.02 0.04 0.01 0.00 0.01 0.00 0.00 0.00 0.00 0.00 0.00 0.00 0.00 0.00 0.00 0.00 0.00 0.00 0.00 0.01 0.03
0.02 0.02 0.02 0.01 0.01 0.01 0.00 0.00 0.01 0.04 0.08 0.08 0.08 0.10 0.28 0.20 0.10 0.04 0.10 0.03 0.03 0.02 0.02 0.01 0.07 0.21 0.44 0.78 0.46 0.25 0.20 0.27 0.18 0.03 0.03 0.01 0.00 0.00 0.00 0.00 0.00 0.00 0.00 0.00 0.00 0.00 0.00 0.00 0.00 0.00 0.00 0.00 0.01 0.03
0.01 0.02 0.02 0.03 0.06 0.07 0.05 0.06 0.12 0.12 0.07 0.08 0.07 0.10 0.08 0.02 0.01 0.06 0.09 0.01 0.01 0.01 0.01 0.06 0.14 0.11 0.20 0.50 0.39 0.13 0.12 0.15 0.17 0.12 0.04 0.01 0.00 0.01 0.00 0.00 0.00 0.00 0.00 0.00 0.00 0.00 0.00 0.00 0.00 0.00 0.01 0.03 0.07 0.13
0.00 0.01 0.04 0.08 0.09 0.06 0.04 0.14 0.15 0.05 0.07 0.04 0.03 0.01 0.01 0.00 0.03 0.03 0.02 0.00 0.00 0.01 0.01 0.06 0.13 0.13 0.14 0.19 0.14 0.16 0.25 0.28 0.24 0.16 0.10 0.07 0.04 0.03 0.02 0.00 0.00 0.00 0.00 0.00 0.00 0.00 0.00 0.00 0.00 0.03 0.06 0.09 0.08 0.11
0.00 0.02 0.02 0.01 0.01 0.01 0.05 0.10 0.03 0.05 0.07 0.08 0.01 0.00 0.01 0.01 0.05 0.06 0.00 0.00 0.01 0.01 0.01 0.01 0.03 0.07 0.07 0.09 0.11 0.19 0.28 0.26 0.16 0.09 0.08 0.07 0.06 0.07 0.07 0.08 0.07 0.05 0.03 0.02 0.03 0.03 0.04 0.04 0.03 0.08 0.11 0.11 0.06 0.05
0.01 0.01 0.01 0.00 0.00 0.01 0.02 0.02 0.03 0.01 0.07 0.06 0.05 0.06 0.03 0.05 0.10 0.07 0.02 0.01 0.01 0.01 0.01 0.03 0.04 0.10 0.10 0.09 0.12 0.10 0.05 0.06 0.08 0.09 0.09 0.06 0.06 0.07 0.08 0.08 0.09 0.09 0.09 0.08 0.09 0.07 0.07 0.06 0.05 0.06 0.06 0.04 0.05 0.05
0.00 0.01 0.02 0.00 0.00 0.00 0.00 0.01 0.01 0.02 0.04 0.09 0.12 0.08 0.05 0.09 0.10 0.10 0.06 0.06 0.08 0.08 0.06 0.05 0.07 0.08 0.09 0.07 0.09 0.04 0.05 0.07 0.07 0.08 0.08 0.08 0.09 0.10 0.11 0.10 0.11 0.09 0.09 0.07 0.05 0.03 0.03 0.02 0.01 0.01 0.01 0.02 0.01 0.01
0.02 0.01 0.00 0.01 0.02 0.02 0.03 0.01 0.02 0.04 0.11 0.11 0.10 0.10 0.07 0.12 0.18 0.18 0.14 0.15 0.18 0.15 0.06 0.04 0.03 0.01 0.06 0.09 0.07 0.07 0.06 0.09 0.09 0.09 0.08 0.09 0.08 0.08 0.08 0.06 0.07 0.06 0.05 0.04 0.02 0.02 0.02 0.01 0.01 0.02 0.01 0.00 0.00 0.01
0.07 0.01 0.01 0.02 0.03 0.07 0.09 0.07 0.03 0.07 0.14 0.19 0.22 0.16 0.14 0.19 0.26 0.25 0.18 0.12 0.11 0.12 0.09 0.08 0.04 0.02 0.05 0.05 0.07 0.07 0.06 0.07 0.08 0.10 0.09 0.10 0.09 0.07 0.06 0.04 0.03 0.02 0.02 0.02 0.01 0.01 0.02 0.02 0.02 0.01 0.01 0.01 0.01 0.02
0.32 0.19 0.16 0.16 0.17 0.19 0.18 0.14 0.10 0.09 0.15 0.21 0.23 0.19 0.18 0.22 0.23 0.21 0.18 0.12 0.07 0.05 0.07 0.11 0.10 0.08 0.06 0.07 0.10 0.06 0.06 0.07 0.06 0.05 0.08 0.10 0.10 0.05 0.05 0.02 0.03 0.02 0.01 0.01 0.01 0.01 0.00 0.01 0.01 0.01 0.01 0.01 0.01 0.01
0.25 0.27 0.22 0.19 0.13 0.09 0.22 0.25 0.20 0.13 0.12 0.16 0.16 0.14 0.15 0.14 0.13 0.13 0.09 0.06 0.04 0.05 0.08 0.10 0.10 0.08 0.08 0.09 0.09 0.06 0.08 0.06 0.08 0.04 0.03 0.06 0.10 0.04 0.04 0.03 0.02 0.01 0.01 0.01 0.00 0.01 0.00 0.00 0.00 0.00 0.01 0.01 0.01 0.00
0.06 0.08 0.09 0.09 0.05 0.02 0.05 0.09 0.08 0.10 0.08 0.09 0.08 0.06 0.06 0.06 0.05 0.05 0.03 0.02 0.05 0.07 0.09 0.08 0.08 0.07 0.07 0.08 0.10 0.09 0.11 0.08 0.08 0.07 0.07 0.05 0.05 0.03 0.02 0.02 0.01 0.00 0.00 0.00 0.00 0.00 0.00 0.00 0.00 0.00 0.00 0.00 0.00 0.00
0.00 0.00 0.00 0.00 0.01 0.00 0.02 0.02 0.04 0.06 0.05 0.06 0.04 0.02 0.03 0.03 0.03 0.01 0.01 0.03 0.06 0.08 0.10 0.08 0.09 0.10 0.09 0.12 0.08 0.11 0.16 0.07 0.07 0.08 0.07 0.05 0.03 0.02 0.01 0.00 0.00 0.00 0.00 0.00 0.00 0.00 0.00 0.00 0.00 0.00 0.00 0.00 0.00 0.00
0.00 0.00 0.00 0.00 0.00 0.00 0.00 0.00 0.01 0.01 0.01 0.02 0.01 0.02 0.03 0.03 0.01 0.01 0.03 0.05 0.09 0.08 0.08 0.08 0.09 0.10 0.09 0.07 0.06 0.08 0.14 0.07 0.03 0.05 0.04 0.01 0.00 0.00 0.00 0.00 0.00 0.00 0.00 0.00 0.00 0.00 0.00 0.00 0.00 0.00 0.00 0.00 0.00 0.00
0.00 0.00 0.00 0.00 0.00 0.00 0.00 0.00 0.00 0.00 0.01 0.01 0.01 0.01 0.02 0.01 0.00 0.01 0.03 0.05 0.07 0.07 0.09 0.10 0.10 0.10 0.08 0.08 0.08 0.07 0.08 0.04 0.02 0.01 0.01 0.00 0.00 0.00 0.00 0.00 0.00 0.00 0.00 0.00 0.00 0.00 0.00 0.00 0.00 0.00 0.00 0.00 0.00 0.00
0.00 0.00 0.00 0.00 0.00 0.00 0.00 0.00 0.01 0.01 0.00 0.00 0.01 0.01 0.01 0.00 0.00 0.01 0.02 0.04 0.06 0.06 0.08 0.09 0.10 0.08 0.08 0.07 0.06 0.05 0.04 0.01 0.00 0.00 0.00 0.00 0.00 0.00 0.00 0.00 0.00 0.00 0.00 0.00 0.00 0.00 0.00 0.00 0.00 0.00 0.00 0.00 0.00 0.00
0.00 0.00 0.00 0.00 0.01 0.01 0.00 0.00 0.00 0.00 0.00 0.01 0.01 0.00 0.00 0.00 0.01 0.02 0.03 0.04 0.04 0.06 0.06 0.06 0.06 0.05 0.05 0.05 0.02 0.01 0.00 0.00 0.00 0.00 0.00 0.00 0.00 0.00 0.00 0.00 0.00 0.00 0.00 0.00 0.00 0.00 0.00 0.00 0.00 0.00 0.00 0.00 0.00 0.00
0.00 0.00 0.00 0.00 0.00 0.00 0.00 0.00 0.00 0.01 0.01 0.01 0.00 0.00 0.00 0.00 0.02 0.03 0.03 0.04 0.04 0.05 0.05 0.05 0.04 0.02 0.01 0.00 0.00 0.00 0.00 0.00 0.00 0.00 0.00 0.00 0.00 0.00 0.00 0.00 0.00 0.00 0.00 0.00 0.00 0.00 0.00 0.00 0.00 0.00 0.00 0.00 0.00 0.00
0.00 0.00 0.00 0.00 0.00 0.00 0.00 0.01 0.01 0.01 0.01 0.01 0.00 0.01 0.01 0.02 0.04 0.04 0.04 0.04 0.05 0.05 0.04 0.03 0.01 0.00 0.00 0.00 0.00 0.00 0.00 0.00 0.00 0.00 0.00 0.00 0.00 0.00 0.00 0.00 0.00 0.00 0.00 0.00 0.00 0.00 0.00 0.00 0.00 0.00 0.00 0.00 0.00 0.00
0.00 0.00 0.00 0.00 0.00 0.01 0.02 0.02 0.02 0.02 0.01 0.01 0.00 0.01 0.01 0.03 0.05 0.05 0.04 0.04 0.03 0.03 0.01 0.00 0.00 0.00 0.00 0.00 0.00 0.00 0.00 0.00 0.00 0.00 0.00 0.00 0.00 0.00 0.00 0.00 0.00 0.00 0.00 0.00 0.00 0.00 0.00 0.00 0.00 0.00 0.00 0.00 0.00 0.00
0.00 0.00 0.00 0.00 0.01 0.02 0.02 0.02 0.01 0.00 0.00 0.00 0.00 0.00 0.01 0.02 0.03 0.03 0.03 0.03 0.02 0.01 0.00 0.00 0.00 0.00 0.00 0.00 0.00 0.00 0.00 0.00 0.00 0.00 0.00 0.00 0.00 0.00 0.00 0.00 0.00 0.00 0.00 0.00 0.00 0.00 0.00 0.00 0.00 0.00 0.00 0.00 0.00 0.00
0.00 0.00 0.00 0.00 0.01 0.01 0.01 0.01 0.00 0.01 0.01 0.01 0.00 0.00 0.01 0.01 0.01 0.01 0.01 0.02 0.01 0.00 0.00 0.00 0.00 0.00 0.00 0.00 0.00 0.00 0.00 0.00 0.00 0.00 0.00 0.00 0.00 0.00 0.00 0.00 0.00 0.00 0.00 0.00 0.00 0.00 0.00 0.00 0.00 0.00 0.00 0.00 0.00 0.00
0.00 0.00 0.00 0.00 0.01 0.00 0.00 0.00 0.00 0.00 0.01 0.01 0.00 0.00 0.01 0.01 0.00 0.01 0.01 0.01 0.01 0.00 0.00 0.00 0.00 0.00 0.00 0.00 0.00 0.00 0.00 0.00 0.00 0.00 0.00 0.00 0.00 0.00 0.00 0.00 0.00 0.00 0.00 0.00 0.00 0.00 0.00 0.00 0.00 0.00 0.00 0.00 0.00 0.00